#timestamp,LO_Frequency,Hit,StdDev 
1509627615.2,286047006.0,Y
1509627635.1,286047003.8,P
1509627636.0,286047003.8,P
1509627655.8,286047002.7,N
1509627675.7,286047000.8,N
1509627695.5,286047001.9,N
1509627715.3,286047000.7,N
1509627735.2,286046996.4,N
1509627755.9,286046994.1,N
1509627775.7,286046992.4,N
1509627795.6,286046999.0,N
1509627815.4,286046995.4,N
1509627835.2,286046994.9,N
1509627855.1,286046992.7,N
1509627856.0,286046992.7,N
1509627875.8,286046988.8,N
1509627895.6,286046993.9,N
1509627915.5,286046996.1,N
1509627935.3,286046991.9,N
1509627955.1,286046995.5,N
1509627975.9,286046995.0,N
1509627995.7,286046997.8,N
1509628015.5,286046991.8,N
1509628035.4,286046990.9,N
1509628055.2,286046992.7,N
1509628075.0,286046994.2,N
1509628075.9,286046994.2,N
1509628095.8,286046990.2,N
1509628115.6,286046994.2,N
1509628135.4,286046999.2,N
1509628155.3,286046999.2,N
1509628175.1,286046999.6,N
1509628195.8,286046992.3,N
1509628215.7,286046990.9,N
1509628235.5,286046991.1,N
1509628255.3,286046991.2,N
1509628275.2,286046988.7,Y
1509628295.0,286046999.0,P
1509628295.9,286046999.0,N
1509628315.8,286047000.7,N
1509628335.6,286046995.1,N
1509628355.4,286046996.9,N
1509628375.3,286046999.4,N
1509628395.1,286046996.0,N
1509628415.8,286046993.6,N
1509628435.7,286046995.0,N
1509628455.5,286046997.7,N
1509628475.3,286046995.9,N
1509628495.2,286046997.5,N
1509628515.9,286046993.5,Y
1509628535.7,286046999.3,P
1509628555.6,286047002.2,N
1509628575.4,286047004.3,N
1509628595.3,286047003.8,N
1509628615.1,286047003.4,N
1509628616.0,286047003.4,N
1509628635.8,286047006.8,N
1509628655.7,286047002.1,N
1509628675.5,286046999.2,N
1509628695.3,286047001.9,N
1509628715.2,286046998.8,N
1509628735.9,286046994.8,N
1509628755.7,286046989.4,Y
1509628775.6,286046989.7,P
1509628795.4,286046991.5,N
1509628815.2,286046989.2,N
1509628835.1,286046991.3,N
1509628836.0,286046991.3,N
1509628855.8,286046989.8,N
1509628875.6,286046989.5,N
1509628895.5,286046988.5,Y
1509628915.3,286046997.8,P
1509628935.2,286046993.6,N
1509628955.9,286046996.6,N
1509628975.7,286046993.0,N
1509628995.6,286046989.8,Y
1509629015.4,286046994.2,P
1509629035.2,286046992.3,P
1509629055.1,286046993.2,P
1509629056.0,286046993.2,Y
1509629075.8,286046996.9,P
1509629095.6,286046998.4,N
1509629115.5,286047000.5,N
1509629135.3,286047001.9,N
1509629155.1,286046999.7,N
1509629175.9,286047001.8,N
1509629195.7,286047004.1,N
1509629215.5,286047003.8,N
1509629235.4,286047005.5,N
1509629255.2,286047006.6,N
1509629275.0,286047010.0,N
1509629275.9,286047010.0,N
1509629295.8,286047015.5,Y
1509629315.6,286047012.0,P
1509629335.5,286047006.2,N
1509629355.3,286047011.9,P
1509629375.1,286047013.4,Y
1509629395.9,286047003.9,P
1509629415.7,286047007.4,P
1509629435.5,286047007.9,P
1509629455.4,286047004.9,N
1509629475.2,286046999.9,N
1509629495.0,286047000.5,N
1509629495.9,286047000.5,N
1509629515.8,286047002.2,N
1509629535.6,286047005.1,N
1509629555.4,286047006.7,N
1509629575.3,286047009.1,Y
1509629595.1,286047004.1,P
1509629615.9,286047007.1,P
1509629635.7,286047006.4,P
1509629655.5,286047005.9,Y
1509629675.4,286047000.8,P
1509629695.2,286047000.8,N
1509629715.0,286047003.7,N
1509629715.9,286047003.7,N
1509629735.8,286047008.7,Y
1509629755.6,286047007.6,P
1509629775.4,286047005.3,N
1509629795.3,286047006.2,P
1509629815.1,286047008.5,Y
1509629835.9,286047003.4,P
1509629855.7,286047001.0,N
1509629875.5,286046997.5,N
1509629895.4,286046999.1,N
1509629915.2,286046993.4,N
1509629935.0,286046990.6,N
1509629935.9,286046990.6,N
1509629955.8,286046995.1,N
1509629975.6,286046996.9,N
1509629995.4,286046997.4,N
1509630015.3,286046997.5,N
1509630035.1,286046993.5,N
1509630036.0,286046993.5,N
1509630055.8,286046991.3,N
1509630075.7,286046988.7,N
1509630095.5,286046992.5,N
1509630115.3,286046989.0,N
1509630135.2,286046992.9,N
1509630155.9,286046992.6,N
1509630175.7,286046990.1,N
1509630195.6,286046988.9,N
1509630215.4,286046989.4,N
1509630235.2,286046989.3,N
1509630255.1,286046991.4,N
1509630256.0,286046991.4,N
1509630275.8,286046990.2,N
1509630295.6,286046988.1,N
1509630315.5,286046989.7,N
1509630335.3,286046988.5,N
1509630355.1,286046992.8,N
1509630375.9,286046996.4,N
1509630395.7,286046996.4,N
1509630415.5,286046993.3,N
1509630435.4,286046992.0,N
1509630455.2,286046990.1,Y
1509630475.1,286046998.9,P
1509630476.0,286046998.9,N
1509630495.8,286047000.5,N
1509630515.6,286046998.6,N
1509630535.5,286046995.3,N
1509630555.3,286046994.7,N
1509630575.1,286046993.1,N
1509630595.9,286046987.6,Y
1509630615.7,286046988.5,P
1509630635.5,286046993.5,N
1509630655.4,286046990.1,P
1509630675.2,286046990.9,N
1509630695.0,286046992.6,N
1509630696.0,286046992.6,N
1509630715.8,286046994.4,N
1509630735.6,286046993.4,N
1509630755.5,286046993.8,N
1509630775.3,286046998.2,N
1509630795.1,286047000.6,N
1509630815.9,286047000.3,N
1509630835.7,286046996.8,N
1509630855.5,286046999.9,N
1509630875.4,286047002.2,N
1509630895.2,286047001.1,N
1509630915.0,286047000.3,N
1509630915.9,286047000.3,N
1509630935.8,286047002.3,N
1509630955.6,286047004.3,N
1509630975.4,286047002.8,N
1509630995.3,286047002.6,N
1509631015.1,286047002.1,N
1509631016.0,286047002.1,N
1509631035.8,286047001.5,N
1509631055.7,286047000.5,N
1509631075.5,286047001.9,N
1509631095.3,286047002.8,N
1509631115.2,286047006.0,N
1509631135.9,286047005.8,N
1509631155.7,286047008.0,N
1509631175.6,286047004.9,N
1509631195.4,286047005.1,N
